Dyersburg, TN

11:59 AM CDT on May 24, 2017 (GMT -0500)
Dyersburg Municipal

Weather History for KDYR - January, 2013

Change the Weather History Date:

Wednesday, January 30, 2013

  Actual Average Record
Temperature  
Mean Temperature 45 °F -  
Max Temperature 57 °F 45 °F 73 °F (2002)
Min Temperature 33 °F 31 °F 15 °F (2004)
Degree Days  
Heating Degree Days 20    
Moisture  
Dew Point 34 °F    
Average Humidity 62    
Maximum Humidity 77    
Minimum Humidity 48    
Precipitation  
Precipitation 0.66 in - - ()
Sea Level Pressure  
Sea Level Pressure 29.68 in    
Wind  
Wind Speed 11 mph (WSW)    
Max Wind Speed 26 mph    
Max Gust Speed 38 mph    
Visibility 10 miles    
Events      
Averages and records for this station are not official NWS values.
T = Trace of Precipitation, MM = Missing Value Source: NWS Daily Summary

Daily Weather History Graph

Daily Weather History Graph

Search for Another Location

Airport or City:

Trip Planner

Search our weather history database for the weather conditions in past years. The results will help you decide how hot, cold, wet, or windy it might be!

Date:

Astronomy

Jan. 30, 2013 Rise Set
Actual Time 6:59 AM CST 5:22 PM CST
Civil Twilight 6:32 AM CST 5:49 PM CST
Nautical Twilight 6:01 AM CST 6:20 PM CST
Astronomical Twilight 5:31 AM CST 6:50 PM CST
Moon 9:11 PM CST (1/30) 8:36 AM CST (1/30)
Length of Visible Light 11h 17m
Length of Day
10h 23m
Waning Gibbous, 87% of the Moon is Illuminated
Jan 30
Waning Gibbous
Feb 3
Last Quarter
Feb 10
New
Feb 17
First Quarter
Feb 25
Full

Hourly Weather History & Observations

Time (CST) Temp. Windchill Dew Point Humidity Pressure Visibility Wind Dir Wind Speed Gust Speed Precip Events Conditions
12:55 AM 53.6 °F - 46.4 °F 77% 29.60 in 10.0 mi NNW 5.8 mph - 0.30 in   Overcast
1:15 AM 53.6 °F - 46.4 °F 77% 29.61 in 9.0 mi Calm Calm - 0.06 in   Overcast
1:35 AM 53.6 °F - 46.4 °F 77% 29.59 in 7.0 mi NNE 3.5 mph - 0.15 in   Overcast
1:56 AM 53.6 °F - 46.4 °F 77% 29.57 in 10.0 mi Calm Calm - N/A   Overcast
2:35 AM 53.6 °F - 46.4 °F 77% 29.56 in 10.0 mi East 3.5 mph - N/A   Overcast
2:55 AM 53.6 °F - 46.4 °F 77% 29.56 in 9.0 mi SE 4.6 mph - N/A   Mostly Cloudy
3:15 AM 53.6 °F - 46.4 °F 77% 29.59 in 10.0 mi South 4.6 mph - N/A   Overcast
3:55 AM 53.6 °F - 46.4 °F 77% 29.57 in 10.0 mi SSE 6.9 mph - 0.12 in   Overcast
4:15 AM 53.6 °F - 46.4 °F 77% 29.57 in 10.0 mi SSE 11.5 mph 17.3 mph 0.05 in   Mostly Cloudy
4:55 AM 53.6 °F - 46.4 °F 77% 29.52 in 10.0 mi SSE 8.1 mph - 0.09 in   Overcast
5:15 AM 53.6 °F - 46.4 °F 77% 29.52 in 10.0 mi SSE 9.2 mph - N/A   Overcast
5:35 AM 53.6 °F - 46.4 °F 77% 29.51 in 10.0 mi SSE 9.2 mph - N/A   Overcast
5:55 AM 53.6 °F - 46.4 °F 77% 29.52 in 10.0 mi South 9.2 mph - N/A   Overcast
6:15 AM 53.6 °F - 46.4 °F 77% 29.52 in 10.0 mi South 9.2 mph 16.1 mph N/A   Overcast
6:35 AM 53.6 °F - 46.4 °F 77% 29.52 in 10.0 mi South 9.2 mph - N/A   Overcast
7:15 AM 53.6 °F - 44.6 °F 72% 29.54 in 10.0 mi South 9.2 mph 17.3 mph N/A   Overcast
7:35 AM 53.6 °F - 44.6 °F 72% 29.54 in 10.0 mi South 11.5 mph 19.6 mph N/A   Overcast
7:56 AM 53.6 °F - 44.6 °F 72% 29.54 in 10.0 mi South 9.2 mph 18.4 mph N/A   Overcast
8:15 AM 55.4 °F - 44.6 °F 67% 29.55 in 10.0 mi SSW 9.2 mph 17.3 mph N/A   Overcast
8:35 AM 53.6 °F - 44.6 °F 72% 29.55 in 10.0 mi SSW 9.2 mph 18.4 mph N/A   Overcast
9:15 AM 55.4 °F - 44.6 °F 67% 29.53 in 10.0 mi SSW 13.8 mph 23.0 mph N/A   Overcast
9:35 AM 55.4 °F - 44.6 °F 67% 29.53 in 10.0 mi SW 12.7 mph 26.5 mph N/A   Mostly Cloudy
9:56 AM 57.2 °F - 44.6 °F 63% 29.53 in 10.0 mi SW 18.4 mph 28.8 mph N/A   Mostly Cloudy
10:15 AM 55.4 °F - 42.8 °F 63% 29.54 in 10.0 mi SW 20.7 mph 31.1 mph N/A   Mostly Cloudy
10:35 AM 55.4 °F - 42.8 °F 63% 29.54 in 10.0 mi WSW 19.6 mph 27.6 mph N/A   Overcast
10:55 AM 55.4 °F - 42.8 °F 63% 29.53 in 10.0 mi WSW 23.0 mph 27.6 mph N/A   Overcast
11:15 AM 55.4 °F - 42.8 °F 63% 29.57 in 10.0 mi WSW 23.0 mph 32.2 mph N/A   Overcast
11:55 AM 55.4 °F - 42.8 °F 63% 29.55 in 10.0 mi WSW 23.0 mph 28.8 mph N/A   Mostly Cloudy
12:15 PM 51.8 °F - 37.4 °F 58% 29.57 in 10.0 mi West 16.1 mph 28.8 mph N/A   Overcast
12:35 PM 48.2 °F - 35.6 °F 62% 29.57 in 10.0 mi West 18.4 mph 26.5 mph N/A   Overcast
12:56 PM 48.2 °F - 35.6 °F 62% 29.56 in 10.0 mi WNW 17.3 mph 26.5 mph N/A   Overcast
1:15 PM 46.4 °F 38.5 °F 33.8 °F 62% 29.59 in 10.0 mi West 21.9 mph 28.8 mph N/A   Overcast
1:35 PM 46.4 °F 39.2 °F 32.0 °F 57% 29.60 in 10.0 mi West 18.4 mph 28.8 mph N/A   Overcast
2:15 PM 44.6 °F 36.4 °F 30.2 °F 57% 29.63 in 10.0 mi West 20.7 mph 28.8 mph N/A   Overcast
2:35 PM 44.6 °F 37.2 °F 28.4 °F 53% 29.63 in 10.0 mi West 17.3 mph 26.5 mph N/A   Overcast
3:15 PM 44.6 °F 37.2 °F 28.4 °F 53% 29.66 in 10.0 mi West 17.3 mph 25.3 mph N/A   Overcast
3:35 PM 44.6 °F 35.7 °F 26.6 °F 49% 29.69 in 10.0 mi West 24.2 mph 34.5 mph N/A   Overcast
3:55 PM 42.8 °F 35.4 °F 26.6 °F 53% 29.69 in 10.0 mi WNW 15.0 mph 29.9 mph N/A   Overcast
4:35 PM 41.0 °F 31.9 °F 23.0 °F 49% 29.73 in 10.0 mi West 19.6 mph 28.8 mph N/A   Overcast
4:55 PM 39.2 °F 28.0 °F 23.0 °F 52% 29.74 in 10.0 mi WNW 26.5 mph 35.7 mph N/A   Overcast
5:15 PM 39.2 °F 30.2 °F 21.2 °F 49% 29.77 in 10.0 mi WNW 17.3 mph 33.4 mph N/A   Mostly Cloudy
5:35 PM 39.2 °F 29.6 °F 21.2 °F 49% 29.78 in 10.0 mi WNW 19.6 mph 31.1 mph N/A   Overcast
5:55 PM 37.4 °F 27.5 °F 21.2 °F 52% 29.80 in 10.0 mi WNW 18.4 mph 38.0 mph N/A   Overcast
6:16 PM 37.4 °F 28.9 °F 21.2 °F 52% 29.83 in 10.0 mi WNW 13.8 mph 28.8 mph N/A   Overcast
6:35 PM 37.4 °F 27.2 °F 21.2 °F 52% 29.85 in 10.0 mi WNW 19.6 mph 31.1 mph N/A   Mostly Cloudy
6:55 PM 37.4 °F 26.9 °F 19.4 °F 48% 29.86 in 10.0 mi West 20.7 mph 27.6 mph N/A   Mostly Cloudy
7:35 PM 37.4 °F 27.8 °F 19.4 °F 48% 29.89 in 10.0 mi WNW 17.3 mph 25.3 mph N/A   Overcast
7:55 PM 37.4 °F 28.5 °F 19.4 °F 48% 29.90 in 10.0 mi WNW 15.0 mph 24.2 mph N/A   Overcast
8:35 PM 35.6 °F 24.8 °F 19.4 °F 52% 29.93 in 10.0 mi West 19.6 mph 27.6 mph N/A   Overcast
8:55 PM 35.6 °F 25.9 °F 19.4 °F 52% 29.94 in 10.0 mi WNW 16.1 mph 25.3 mph N/A   Overcast
9:35 PM 35.6 °F 25.5 °F 19.4 °F 52% 29.96 in 10.0 mi West 17.3 mph 25.3 mph N/A   Overcast
9:55 PM 35.6 °F 25.9 °F 19.4 °F 52% 29.97 in 10.0 mi West 16.1 mph 27.6 mph N/A   Overcast
10:15 PM 35.6 °F 25.5 °F 19.4 °F 52% 29.98 in 10.0 mi West 17.3 mph 23.0 mph N/A   Overcast
10:55 PM 35.6 °F 24.8 °F 17.6 °F 48% 30.01 in 10.0 mi West 19.6 mph 28.8 mph N/A   Overcast
11:15 PM 35.6 °F 25.5 °F 17.6 °F 48% 30.02 in 10.0 mi West 17.3 mph 24.2 mph N/A   Overcast
11:36 PM 33.8 °F 24.3 °F 17.6 °F 52% 30.02 in 10.0 mi West 13.8 mph 23.0 mph N/A   Overcast
11:55 PM 33.8 °F 23.2 °F 17.6 °F 52% 30.02 in 10.0 mi West 17.3 mph 23.0 mph N/A   Overcast